This is the latest recevied weather packets stored in our database for station/object K2CAT. If no packets are shown the sender has not sent any weather packets the latest 10 day(s).
| Time | Temp. | Humidity | Pressure | Rain* | Wind** | Luminosity | Snow |
|---|---|---|---|---|---|---|---|
| 1777150001 | 6.67° C | 92% | 1016.9 hPa | 1.78 mm | - | 71 W/m² | - |
| 1777149696 | 6.67° C | 92% | 1017.1 hPa | 1.27 mm | - | 64 W/m² | - |
| 1777149393 | 6.67° C | 92% | 1016.9 hPa | 3.05 mm | - | 66 W/m² | - |
| 1777149088 | 6.67° C | 92% | 1017.1 hPa | 1.78 mm | - | 67 W/m² | - |
| 1777148783 | 6.67° C | 92% | 1017.2 hPa | 1.78 mm | - | 73 W/m² | - |
| 1777148480 | 6.67° C | 92% | 1017.2 hPa | 1.78 mm | - | 78 W/m² | - |
| 1777148176 | 6.67° C | 91% | 1017.2 hPa | 1.27 mm | - | 67 W/m² | - |
| 1777147872 | 6.67° C | 92% | 1017.2 hPa | 1.27 mm | - | 60 W/m² | - |
| 1777147568 | 6.67° C | 92% | 1017.5 hPa | 1.78 mm | - | 59 W/m² | - |
| 1777147263 | 6.67° C | 92% | 1017.1 hPa | 3.05 mm | - | 60 W/m² | - |
| 1777146959 | 6.67° C | 91% | 1017.2 hPa | 1.27 mm | - | 68 W/m² | - |
| 1777146656 | 6.67° C | 90% | 1017.3 hPa | 1.78 mm | - | 60 W/m² | - |
| 1777146351 | 7.22° C | 90% | 1017.5 hPa | 1.78 mm | - | 63 W/m² | - |
| 1777146048 | 7.78° C | 90% | 1017.3 hPa | 1.27 mm | - | 65 W/m² | - |
| 1777145744 | 7.22° C | 90% | 1017.5 hPa | 1.27 mm | - | 75 W/m² | - |
| 1777145440 | 7.78° C | 89% | 1017.5 hPa | 1.78 mm | - | 81 W/m² | - |
| 1777145135 | 7.78° C | 89% | 1017.5 hPa | 1.78 mm | - | 109 W/m² | - |
| 1777144832 | 7.78° C | 88% | 1017.4 hPa | 0 mm | - | 110 W/m² | - |
| 1777144529 | 7.22° C | 87% | 1017.3 hPa | 0 mm | - | 117 W/m² | - |
| 1777144226 | 7.22° C | 86% | 1017.6 hPa | 0 mm | - | 123 W/m² | - |
| 1777143922 | 7.78° C | 87% | 1017.6 hPa | 1.27 mm | - | 154 W/m² | - |
| 1777143619 | 7.78° C | 88% | 1017.6 hPa | 1.27 mm | - | 158 W/m² | - |
| 1777143314 | 7.22° C | 87% | 1017.7 hPa | 0 mm | - | 150 W/m² | - |
| 1777143010 | 7.22° C | 88% | 1018 hPa | 0 mm | - | 133 W/m² | - |
| 1777142706 | 7.78° C | 88% | 1017.7 hPa | 1.78 mm | - | 101 W/m² | - |
* Rain latest hour (hover to see other rain measurements)
** Current wind speed in m/s (hover to see current wind gust speed)